Home   Weather   Sawai Madhopur   Past weeks

Flag for India Past Weather in Sawai Madhopur, Rajasthan, India — Yesterday and Last 2 Weeks

Now
55 °F

Clear.


Feels Like: 55 °F
Forecast: 48 / 78 °F
Wind: No wind

Location: Jaipur / Sanganer

Current Time: Dec 3, 2016 at 5:46:23 am

Latest Report: Dec 3, 2016 at 5:00 am


Visibility: 1 mi

Pressure: 30.09 "Hg

Humidity: 77%

Dew Point: 48 °F

Location of Sawai MadhopurLocation

Past Weather in Sawai Madhopur — Graph

°F

Sawai Madhopur Temperature Yesterday

Maximum temperature yesterday: 81 °F (at 2:00 pm)
Minimum temperature yesterday: 61 °F (at 3:00 am)
Average temperature yesterday: 70 °F

High & Low Weather Summary for the Past Weeks

 TemperatureHumidityPressure
High88 °F (Nov 29, 2:30 pm)73% (Dec 2, 7:00 am)30.15 "Hg (Dec 2, 7:00 am)
Low55 °F (Nov 18, 6:00 am)12% (Nov 19, 4:00 pm)29.89 "Hg (Nov 19, 3:00 pm)
Average72 °F37%30.01 "Hg
* Reported Nov 18 4:00 am — Dec 3 4:00 am, Sawai Madhopur, Weather by CustomWeather, © 2016

Note: Actual official high and low records may vary slightly from our data, if they occured in-between our weather recording intervals... More about our weather records

Advertising

Sawai Madhopur Weather History for the Previous 24 Hours

Scroll right to see more
 ConditionsComfort  
Time TempWeatherWind HumidityBarometerVisibility
4:00 am
Sat, Dec 3
59 °FClear.1 mph72%30.09 "Hg1 mi
3:00 am57 °FClear.No wind72%30.09 "Hg1 mi
2:30 am59 °FClear.No wind72%30.09 "Hg1 mi
2:00 am59 °FClear.No wind72%30.09 "Hg1 mi
12:00 am64 °FClear.3 mph60%30.09 "Hg1 mi
11:30 pm
Fri, Dec 2
66 °FClear.5 mph56%30.09 "Hg1 mi
11:00 pm66 °FClear.5 mph60%30.09 "Hg1 mi
10:30 pm66 °FClear.2 mph56%30.09 "Hg1 mi
10:00 pm64 °FClear.No wind56%30.09 "Hg1 mi
9:00 pm66 °FClear.1 mph52%30.09 "Hg1 mi
8:30 pm68 °FClear.No wind49%30.09 "Hg1 mi
8:00 pm68 °FClear.5 mph49%30.09 "Hg1 mi
7:00 pm70 °FClear.No wind50%30.07 "Hg1 mi
6:30 pm72 °FClear.3 mph47%30.07 "Hg1 mi
6:00 pm70 °FClear.2 mph50%30.07 "Hg1 mi
5:30 pm75 °FClear.1 mph41%30.04 "Hg1 mi
5:00 pm77 °FHaze.1 mph39%30.04 "Hg1 mi
4:30 pm79 °FHaze.5 mph37%30.04 "Hg1 mi
4:00 pm81 °FHaze.1 mph28%30.04 "Hg1 mi
3:30 pm81 °FHaze.5 mph26%30.04 "Hg1 mi
3:00 pm81 °FHaze.2 mph26%30.04 "Hg1 mi
2:30 pm81 °FHaze.3 mph28%30.07 "Hg1 mi
2:00 pm81 °FHaze.2 mph30%30.07 "Hg1 mi
1:30 pm79 °FHaze.2 mph32%30.09 "Hg1 mi
1:00 pm79 °FHaze.5 mph34%30.09 "Hg1 mi
12:00 pm79 °FHaze.6 mph39%30.12 "Hg1 mi
10:30 am73 °FHaze.6 mph53%30.15 "Hg1 mi
10:00 am70 °FHaze.6 mph60%30.15 "Hg1 mi
9:00 am68 °FFog.7 mph69%30.12 "Hg1 mi
8:30 am66 °FClear.6 mph73%30.12 "Hg1 mi
8:00 am64 °FFog.3 mph73%30.12 "Hg1 mi
7:30 am64 °FFog.1 mph73%30.09 "Hg1 mi
7:00 am63 °FFog.1 mph73%30.09 "Hg1 mi
6:00 am63 °FClear.2 mph68%30.07 "Hg1 mi
5:30 am63 °FClear.No wind68%30.07 "Hg1 mi
5:00 am61 °FClear.No wind68%30.07 "Hg1 mi
Weather by CustomWeather, © 2016

See weather overviewHow to use our weather pages